GW5233 Weather Reports


time (UTC)temp
F
wind
direction
speed
knots
gust
knots
rain 1hr
in
rain 24hr
in
rain mn
in
humidity
%
barometer
mb
20260505130111 51 5 3.5 4.3 0.00 0.00 0.00 20 918.5
20260505124609 51 330 2.6 3.5 0.00 0.00 0.00 20 918.5
20260505123109 51 315 0.9 2.6 0.00 0.00 0.00 20 918.5
20260505121608 52 326 3.5 3.5 0.00 0.00 0.00 20 918.5
20260505120110 53 1 3.5 4.3 0.00 0.00 0.00 20 918.6
20260505114623 53 357 1.7 2.6 0.00 0.00 0.00 20 918.6
20260505113109 53 332 1.7 2.6 0.00 0.00 0.00 20 918.6
20260505111609 54 328 0.9 1.7 0.00 0.00 0.00 20 918.7
20260505110108 55 160 0.9 2.6 0.00 0.00 0.00 20 918.7
20260505101610 62 325 5.2 8.7 0.00 0.00 0.00 20 919.3
20260505100115 62 342 7.0 7.8 0.00 0.00 0.00 20 919.3
20260505094610 63 331 6.1 7.8 0.00 0.00 0.00 20 919.3
20260505093124 63 319 7.8 11.3 0.00 0.00 0.00 20 919.4
20260505091608 63 332 7.8 11.3 0.00 0.00 0.00 20 919.4
20260505090113 61 310 7.0 9.6 0.00 0.00 0.00 20 919.3
20260505084608 63 0 3.5 7.0 0.00 0.00 0.00 20 919.4
20260505083112 64 287 3.5 4.3 0.00 0.00 0.00 20 919.5
20260505081612 65 14 3.5 6.1 0.00 0.00 0.00 20 919.5
20260505080116 65 282 1.7 3.5 0.00 0.00 0.00 20 919.6
20260505074619 67 315 2.6 6.1 0.00 0.00 0.00 20 919.7
20260505073110 68 91 4.3 7.8 0.00 0.00 0.00 20 919.7
20260505071609 67 63 5.2 7.8 0.00 0.00 0.00 20 919.7
20260505070116 67 41 5.2 7.8 0.00 0.00 0.00 20 919.7
20260505064612 68 328 2.6 6.1 0.00 0.00 0.00 20 919.7
20260505063110 68 235 5.2 7.8 0.00 0.00 0.00 20 919.7
20260505061608 69 86 2.6 3.5 0.00 0.00 0.00 20 919.7
20260505060114 69 57 5.2 8.7 0.00 0.00 0.00 20 919.8
20260505054612 69 246 1.7 3.5 0.00 0.00 0.00 20 919.7
20260505053113 70 44 1.7 2.6 0.00 0.00 0.00 20 919.9
20260505051608 70 49 7.0 10.4 0.00 0.00 0.00 20 919.9
20260505050114 70 58 1.7 5.2 0.00 0.00 0.00 20 919.9
20260505041611 70 289 3.5 5.2 0.00 0.00 0.00 20 919.9
20260505040111 70 250 5.2 7.8 0.00 0.00 0.00 20 919.9
20260505034607 69 286 4.3 5.2 0.00 0.00 0.00 20 919.9
20260505033110 68 246 1.7 2.6 0.00 0.00 0.00 20 919.7
20260505030109 72 100 3.5 5.2 0.00 0.00 0.00 20 919.8
20260505023108 74 38 7.8 9.6 0.00 0.00 0.00 20 920.3
20260505021617 73 282 3.5 4.3 0.00 0.00 0.00 20 920.1
20260505020121 75 147 3.5 4.3 0.00 0.00 0.00 20 920.1
20260505014611 76 238 7.0 9.6 0.00 0.00 0.00 20 920.3
20260505013120 78 238 7.0 9.6 0.00 0.00 0.00 21 920.5
20260505011614 78 202 4.3 7.0 0.00 0.00 0.00 21 920.6
20260505010109 78 230 5.2 7.0 0.00 0.00 0.00 21 920.6
20260505004611 79 238 4.3 7.8 0.00 0.00 0.00 21 920.6
20260505000108 78 240 7.0 7.8 0.00 0.00 0.00 21 920.6
20260504234608 78 273 10.4 13.9 0.00 0.00 0.00 21 920.6
20260504233108 78 244 9.6 12.2 0.00 0.00 0.00 22 920.6
20260504231608 78 225 7.8 10.4 0.00 0.00 0.00 22 920.6
20260504230109 78 212 7.0 8.7 0.00 0.00 0.00 22 920.6
20260504201614 71 168 7.0 8.7 0.00 0.00 0.00 22 920.1
20260504194609 69 171 7.0 7.8 0.00 0.00 0.00 22 919.9
20260504193108 68 170 5.2 7.0 0.00 0.00 0.00 22 919.8
20260504191617 66 171 6.1 7.0 0.00 0.00 0.00 22 919.7
20260504190112 66 179 7.8 8.7 0.00 0.00 0.00 21 919.6
20260504184608 65 177 10.4 12.2 0.00 0.00 0.00 22 919.6
20260504183117 66 175 7.8 8.7 0.00 0.00 0.00 22 919.6
20260504181614 65 173 8.7 9.6 0.00 0.00 0.00 22 919.6
20260504180117 64 187 7.8 8.7 0.00 0.00 0.00 22 919.6
20260504174620 65 176 7.0 7.8 0.00 0.00 0.00 22 919.5
20260504173111 65 273 0.9 1.7 0.00 0.00 0.00 22 919.7
20260504171614 65 0 0.0 0.0 0.00 0.00 0.00 22 919.7
20260504170112 61 51 0.9 1.7 0.00 0.00 0.00 22 919.4
20260504160111 56 194 4.3 5.2 0.00 0.00 0.00 22 918.9
20260504150108 54 205 4.3 5.2 0.00 0.00 0.00 21 918.7
20260504140113 52 233 2.6 3.5 0.00 0.00 0.00 21 918.5